Location: Berry Creek
(51.8849°N, 111.7341°W)
Time: 15:51:55
(UTC-06:00)

Daily predictions for brighter satellites

Satellite Brightness Start Highest point End
(mag) Time Altitude Azimuth Time Altitude Azimuth Time Altitude Azimuth
ATLAS 2AS CENTAUR R/B 3.7 19:47:17 10° NW 19:55:01 43° NNE 20:02:27 10° E
SJ-6B 3.0 19:52:59 10° SE 19:56:51 50° ENE 20:00:39 10° N
Cosmos 1937 Rocket 4.0 19:51:57 10° NNW 19:57:15 67° WSW 20:02:29 10° SSE
Cosmos 1825 Rocket 4.2 19:54:24 10° NNW 19:58:47 64° W 20:03:10 10° S
Cosmos 841 Rocket 4.1 19:55:13 10° SSE 19:59:49 34° ESE 20:04:25 10° NE
Cosmos 468 Rocket 4.0 19:54:57 10° SSW 20:00:08 71° ESE 20:05:26 10° NNE
NOSS 3-1 (A) 4.1 19:57:21 10° NW 20:04:44 88° SW 20:13:01 10° SE
Cosmos 1697 Rocket 4.2 20:01:02 10° NNW 20:05:17 21° NNE 20:09:29 10° E
Cosmos 1980 Rocket 4.0 20:02:19 10° NNW 20:05:48 16° NNE 20:09:19 10° ENE
ALOS 2.7 20:01:26 10° S 20:06:05 69° WSW 20:10:45 10° NNW
Meteor 2-13 Rocket 4.5 20:03:58 10° S 20:09:56 61° E 20:15:55 10° NNE
HJ-1C 3.4 20:08:22 10° SSE 20:11:41 62° ENE 20:15:03 10° N
FREGAT/IRIS 2.7 20:09:38 10° S 20:12:39 79° WSW 20:15:43 10° NNW
NOSS 3-1 (C) 4.4 20:06:31 10° NW 20:13:50 68° SW 20:22:03 10° SSE
H-2A R/B 2.6 20:11:24 10° SSE 20:15:07 85° ENE 20:18:56 10° NNW
Cosmos 1763 Rocket 3.5 20:14:45 10° S 20:19:47 61° ESE 20:24:56 10° NNE
Cosmos 540 Rocket 4.3 20:16:06 10° SSE 20:20:20 27° E 20:24:35 10° NE
COSMO-SKYMED 1 3.8 20:19:50 10° N 20:24:01 47° WNW 20:28:11 10° SW
SL-08 ROCKET BODY 4.3 20:18:42 10° S 20:24:34 76° E 20:30:35 10° NNE
Meteor 2-5 Rocket 4.2 20:21:00 10° NNW 20:26:53 69° W 20:32:36 10° S
Cosmos 1656 Rocket 4.3 20:22:06 10° NW 20:27:41 60° WSW 20:33:10 10° SSE
Cosmos 1707 4.0 20:25:19 10° NNW 20:29:06 45° W 20:32:51 10° SSW
SL-16 R/B 4.3 20:27:59 10° N 20:30:44 13° NNE 20:33:28 10° NE
Cosmos 1766 3.5 20:29:16 10° SSE 20:33:02 46° E 20:36:48 10° NNE
Thor Agena Rocket 3.6 20:28:29 10° NNE 20:33:48 88° WNW 20:39:01 10° SSW
Meteor 1-22 Rocket 4.2 20:29:34 10° S 20:35:06 56° E 20:40:26 10° NNE
USA 267 3.7 20:30:17 10° ENE 20:36:43 61° N 20:43:09 10° W
COSMOS 2406 3.5 20:35:19 10° S 20:40:40 43° ESE 20:46:05 10° NE
Cosmos 371 Rocket 4.2 20:36:57 10° SW 20:41:44 52° WNW 20:46:33 10° NNE
Cosmos 1726 Rocket 4.3 20:38:05 10° SSW 20:42:22 55° WNW 20:46:39 10° N
Cosmos 1758 4.3 20:40:20 17° SE 20:42:27 26° E 20:45:50 10° NNE
MOS 1-B Rocket 3.9 20:38:56 10° SSE 20:44:55 69° ENE 20:50:30 10° NNW
YAOGAN 6 3.6 20:43:46 23° E 20:44:58 29° ENE 20:48:09 10° N
Cosmos 1674 3.1 20:43:59 10° N 20:47:32 39° ENE 20:49:15 24° SE
BREEZE-M DEB (TANK) 3.6 20:44:09 10° W 20:47:55 72° S 20:57:11 17° E
Spot 2 Rocket 3.4 20:43:08 10° SSE 20:48:09 74° ENE 20:53:12 10° NNW
Resurs 1-3 3.5 20:45:06 10° SSE 20:49:29 79° ENE 20:53:54 10° NNW
Cosmos 1544 3.0 20:46:35 10° S 20:50:08 59° E 20:53:43 10° NNE
Cosmos 2369 4.1 20:44:56 10° NNW 20:50:25 47° NE 20:53:50 22° ESE
Cosmos 2154 Rocket 4.1 20:46:54 10° SSE 20:52:51 50° E 20:58:53 10° NNE
SPOT 5 4.5 20:53:21 14° ENE 20:54:01 15° NE 20:56:27 10° NNE
Cosmos 1939 Rocket 3.0 20:51:56 23° SE 20:54:07 49° ENE 20:57:57 10° N
Cosmos 1076 Rocket 4.2 20:50:14 10° N 20:54:16 34° ENE 20:55:49 26° ESE
In-Cosmos 22 4.4 20:48:35 10° NNW 20:54:16 77° W 21:00:00 10° S
Cosmos 2084 3.1 20:51:45 10° SW 20:55:44 72° SE 20:59:18 12° NE
Cosmos 2074 Rocket 4.0 20:50:03 10° S 20:56:16 90° E 21:02:32 10° N
Cosmos 1356 3.4 20:56:42 10° NNW 21:00:13 90° WSW 21:02:41 18° SSE
Cosmos 2341 Rocket 4.3 20:57:45 10° SSE 21:03:33 44° E 21:09:25 10° NNE
Cosmos 1125 Rocket 4.0 21:01:58 10° NNW 21:07:12 61° WSW 21:12:25 10° S
Cosmos 1805 3.1 21:04:00 10° S 21:07:52 66° E 21:11:45 10° NNE
GP-B 3.0 21:06:18 10° N 21:10:47 84° E 21:15:13 10° S
Resurs 01 Rocket 2.1 21:06:39 10° S 21:11:03 62° WSW 21:15:27 10° NNW
Cosmos 2228 4.3 21:07:05 10° SW 21:11:14 42° WNW 21:15:23 10° N
ERS-1 Rocket 3.7 21:11:53 30° E 21:13:18 36° ENE 21:17:52 10° N
CZ-2D R/B 4.4 21:09:52 10° S 21:13:30 43° W 21:17:11 10° NNW
BREEZE-M DEB (TANK) 4.0 21:06:33 10° SW 21:14:10 29° S 21:15:15 27° SE
USA 186 2.1 21:14:11 35° SW 21:14:46 44° W 21:17:04 10° NNW
Cosmos 1408 Rocket 4.2 21:12:52 10° N 21:16:50 34° ENE 21:17:06 33° E
Nadezhda 3 Rocket 4.0 21:12:14 10° NNW 21:18:36 84° W 21:24:52 10° S
Envisat 3.3 21:15:27 10° S 21:20:30 69° WSW 21:25:36 10° NNW
Cosmos 1812 Rocket 3.5 21:16:36 10° S 21:21:05 89° E 21:25:35 10° N
Cosmos 292 Rocket 4.1 21:20:17 35° SE 21:21:23 40° ESE 21:25:57 10° NE
KORONAS-FOTON 3.7 21:18:20 10° N 21:22:08 67° ENE 21:22:49 53° SE
Cosmos 1470 3.7 21:26:36 32° NE 21:26:36 32° NE 21:29:15 10° NNE
Cosmos 2278 3.6 21:19:53 10° NNW 21:25:35 75° ENE 21:28:04 35° SE
Cosmos 304 Rocket 4.5 21:22:42 10° SW 21:27:25 55° WNW 21:32:11 10° NNE
H-2A R/B 2.9 21:30:21 29° ENE 21:30:46 29° ENE 21:35:07 10° N
Cosmos 2218 Rocket 4.4 21:30:39 35° ESE 21:31:58 39° E 21:37:40 10° NNE
Cosmos 2285 Rocket 4.4 21:30:46 33° SE 21:32:26 39° ESE 21:38:20 10° NE
Cosmos 1953 2.2 21:34:06 44° S 21:35:18 77° E 21:39:24 10° NNE
Okean 3 Rocket 3.6 21:34:26 10° NNW 21:38:57 79° W 21:40:41 37° S
Cosmos 2322 Rocket 3.7 21:35:03 10° NNW 21:39:25 22° NE 21:40:59 20° ENE
MetOp-B 4.3 21:40:54 46° ESE 21:42:03 55° ENE 21:47:18 10° N
Cosmos 1766 Rocket 3.4 21:39:38 10° N 21:43:58 65° ENE 21:44:07 64° E
BREEZE-M DEB (TANK) 4.2 21:43:49 10° WSW 21:43:55 11° WSW 21:43:55 11° WSW
Meteor 2-15 Rocket 4.3 21:40:29 10° N 21:46:35 72° ENE 21:48:45 41° SSE
ATLAS 2AS CENTAUR R/B 3.0 21:38:49 10° NW 21:47:00 89° NE 21:50:23 38° SE
Cosmos 2360 Rocket 4.2 21:44:58 10° NNW 21:48:24 16° NNE 21:50:34 13° NE
Cosmos 1295 Rocket 4.3 21:44:30 14° S 21:49:50 79° E 21:55:56 10° NNE
Cosmos 1697 Rocket 2.7 21:44:37 10° NNW 21:50:19 69° ENE 21:51:34 53° ESE
Cosmos 1980 Rocket 2.5 21:45:48 10° NNW 21:51:16 48° NE 21:52:11 44° E
BREEZE M DEB (TANK) 3.0 21:47:54 10° W 21:51:01 38° WSW 21:51:01 38° WSW
SL-14 R/B 3.6 21:48:19 10° N 21:51:37 56° NNE 21:51:37 56° NNE
Helios 1B rocket 4.1 21:49:17 10° NNE 21:51:01 23° NE 21:51:01 23° NE
Cosmos 1727 Rocket 4.1 21:47:20 10° N 21:53:34 59° ENE 21:54:57 48° ESE
Cosmos 1328 4.4 21:49:34 10° N 21:52:46 47° NNE 21:52:46 47° NNE
Iridium 4 Rocket 4.4 21:55:30 30° NE 21:55:30 30° NE 21:58:36 10° NNE
Helios 1A 3.0 21:53:58 68° SSW 21:54:24 78° WSW 21:58:37 10° NNW
Cosmos 1656 3.6 21:49:31 10° NNW 21:55:16 84° WSW 21:56:47 51° SSE
SL-8 Rocket 3.8 21:55:55 40° SSE 21:58:12 69° E 22:04:20 10° NNE
NOSS 3-4 (A) 4.3 21:52:13 10° NW 21:58:44 47° NNE 22:01:17 34° ENE
NOSS 3-4 (C) 4.3 21:52:19 10° NW 21:58:50 47° NNE 22:01:23 34° ENE
Cosmos 1809 Rocket 4.3 21:57:44 29° S 22:01:05 80° E 22:07:13 10° NNE
Cosmos 540 Rocket 4.2 21:56:39 10° SW 22:01:39 53° WNW 22:06:41 10° NNE
Cosmos 1900 4.4 21:57:20 10° SSW 22:06:58 14° NE 22:07:35 10° NE
Terra 3.3 22:03:52 23° NE 22:03:52 23° NE 22:06:50 10° N
Cosmos 2084 Rocket 3.8 22:02:31 10° NW 22:05:36 53° NNW 22:05:36 53° NNW
SL-08 RB Rocket 4.1 22:07:12 51° NNE 22:07:12 51° NNE 22:10:57 10° N
Meteor 2-16 Rocket 4.3 22:13:01 63° ESE 22:13:27 66° E 22:19:30 10° NNE
SL-16 R/B 3.2 22:11:36 10° NNW 22:16:44 33° NE 22:17:02 33° NE
YAOGAN 6 4.4 22:18:13 26° WSW 22:18:31 27° W 22:21:39 10° NW
USA 267 3.5 22:16:59 39° ENE 22:19:22 62° N 22:25:49 10° WNW
Meteor 2-14 Rocket 4.3 22:23:18 58° S 22:24:39 88° E 22:30:50 10° NNE
ARGOS 3.1 22:24:15 76° SSW 22:24:39 83° WSW 22:30:08 10° NNW
COSMOS 2406 4.3 22:19:34 10° WSW 22:25:02 44° NW 22:30:32 10° NNE
Cosmos 1626 4.1 22:22:38 10° N 22:24:17 24° N 22:24:17 24° N
Cosmos 864 Rocket 4.4 22:26:14 69° SSE 22:27:00 79° E 22:33:22 10° NNE
MetOp-A 4.3 22:27:19 61° SW 22:27:58 67° WSW 22:33:19 10° NNW
Meteor 2-21 Rocket 4.4 22:26:31 52° SSW 22:28:11 86° WNW 22:34:22 10° N
Cosmos 1339 Rocket 4.5 22:23:03 10° NNW 22:29:29 83° W 22:30:42 61° S
SPOT 5 3.4 22:32:35 49° NNW 22:32:35 49° NNW 22:35:55 10° NNW
H-2A R/B 4.3 22:35:56 17° NNE 22:35:56 17° NNE 22:37:35 10° N
Meteor 1-11 4.2 22:29:08 10° NNW 22:34:57 80° W 22:35:18 76° SW
SPOT 1/Viking Rocket 3.7 22:37:11 66° N 22:37:11 66° N 22:41:39 10° NNW
Cosmos 1818 3.6 22:33:21 10° NW 22:38:24 75° WNW 22:38:24 75° WNW
Cosmos 2056 Rocket 4.3 22:42:18 10° NNW 22:46:36 44° NNE 22:46:36 44° NNE
Cosmos 1833 Rocket 4.1 22:53:14 26° NE 22:53:14 26° NE 22:55:39 10° NNE
ERS-1 Rocket 3.9 22:51:53 40° WSW 22:52:03 40° W 22:56:48 10° NNW
Cosmos 2219 Rocket 4.3 22:51:18 10° NNW 22:54:35 16° NNE 22:55:58 14° NE
Cosmos 2360 4.4 22:51:21 10° NNW 22:56:25 67° WNW 22:56:25 67° WNW
Cosmos 2082 Rocket 3.4 23:12:36 33° NNE 23:12:36 33° NNE 23:15:41 10° NNE
H-2A R/B 3.0 23:10:59 43° WNW 23:10:59 43° WNW 23:14:56 10° NNW
Cosmos 2322 Rocket 3.0 23:18:44 10° NNW 23:22:47 48° NNW 23:22:47 48° NNW
Cosmos 1697 Rocket 4.4 23:29:18 10° NW 23:33:18 25° W 23:33:18 25° W
Cosmos 2360 Rocket 3.4 23:28:27 10° NNW 23:32:19 37° N 23:32:19 37° N
Cosmos 1980 Rocket 3.5 23:30:01 10° NW 23:33:57 34° W 23:33:57 34° W
ATLAS 2AS CENTAUR R/B 4.1 23:30:36 10° NW 23:37:13 30° WSW 23:37:50 29° WSW
Terra 3.7 23:42:45 28° NW 23:42:45 28° NW 23:45:08 10° NNW
COSMOS 2428 4.2 23:44:37 10° NNW 23:48:26 30° NNE 23:48:26 30° NNE
NOSS 3-4 (A) 4.2 23:43:13 10° NW 23:48:42 56° WNW 23:48:42 56° WNW
NOSS 3-4 (C) 4.2 23:43:19 10° NW 23:48:49 56° WNW 23:48:49 56° WNW
